Back to catalog

CZ-6A DEB

AlivePO
NORAD 61383·DEBRIS·🇨🇳 China

Launched Aug 6, 2024 from Taiyuan Satellite Launch Center

Loading…

Next Passes (next 24 hours)

TLE

FreshSource: Space-Track

Epoch: Sep 14, 2026, 10:50 UTC

1 61383U 24140WY  26257.45158667  .00001223  00000-0  64062-3 0  9995
2 61383  88.9893 265.3529 0092141 303.4085  55.8311 14.11587103104188

Track CZ-6A DEB in real time with AllMySat

Download on the App Store